SM4IVE-5 Weather Reports


Display with metric or nautical units.
time (UTC)temp
F
wind
direction
speed
MPH
gust
MPH
rain 1hr
in
rain 24hr
in
rain mn
in
humidity
%
barometer
mb
20260510182856 49 192 3.0 7.0 0.00 0.00 0.00 77 1006.8
20260510182325 49 207 3.0 7.0 0.00 0.00 0.00 77 1006.8
20260510181825 49 202 3.0 6.0 0.00 0.00 0.00 78 1006.8
20260510181331 49 178 2.0 5.0 0.00 0.00 0.00 77 1006.8
20260510180832 49 213 1.0 6.0 0.00 0.00 0.00 78 1006.9
20260510180332 49 192 2.0 6.0 0.00 0.00 0.00 78 1006.9
20260510175853 49 199 1.0 7.0 0.00 0.00 0.00 78 1007.0
20260510175331 49 206 2.0 6.0 0.00 0.00 0.00 78 1007.0
20260510174832 49 206 3.0 5.0 0.00 0.00 0.00 78 1007.0
20260510174353 49 222 2.0 5.0 0.00 0.00 0.00 79 1007.0
20260510173831 49 197 2.0 5.0 0.00 0.00 0.00 78 1007.1
20260510173332 49 226 1.0 6.0 0.00 0.00 0.00 78 1007.1
20260510172840 49 215 2.0 6.0 0.00 0.00 0.00 78 1007.1
20260510172348 49 211 2.0 5.0 0.00 0.00 0.00 79 1007.2
20260510171836 49 234 2.0 5.0 0.00 0.00 0.00 78 1007.3
20260510171325 49 213 2.0 5.0 0.00 0.00 0.00 78 1007.4
20260510170853 50 191 1.0 3.0 0.00 0.00 0.00 78 1007.3
20260510170352 50 192 2.0 6.0 0.00 0.00 0.00 78 1007.3
20260510165831 50 176 1.0 6.0 0.00 0.00 0.00 76 1007.4
20260510165332 50 224 1.0 7.0 0.00 0.00 0.00 73 1007.5
20260510164832 50 198 2.0 7.0 0.00 0.00 0.00 73 1007.6
20260510164332 51 343 1.0 4.0 0.00 0.00 0.00 73 1007.7
20260510163832 51 279 2.0 4.0 0.00 0.00 0.00 71 1007.8
20260510163353 51 279 2.0 7.0 0.00 0.00 0.00 70 1007.8
20260510162901 51 285 2.0 6.0 0.00 0.00 0.00 71 1007.8
20260510162330 51 296 2.0 5.0 0.00 0.00 0.00 70 1007.8
20260510161851 51 271 0.0 5.0 0.00 0.00 0.00 72 1007.9
20260510161330 51 269 1.0 5.0 0.00 0.00 0.00 71 1008.0
20260510160825 51 288 3.0 9.0 0.00 0.00 0.00 72 1008.1
20260510160326 52 258 3.0 16.0 0.00 0.00 0.00 70 1008.0
20260510155826 52 302 8.0 16.0 0.00 0.00 0.00 69 1008.2
20260510155327 52 264 7.0 13.0 0.00 0.00 0.00 68 1008.2
20260510154828 53 273 6.0 17.0 0.00 0.00 0.00 66 1008.2
20260510154356 53 307 10.0 17.0 0.00 0.00 0.00 64 1008.2
20260510153844 54 288 9.0 15.0 0.00 0.00 0.00 63 1008.2
20260510153332 54 234 5.0 16.0 0.00 0.00 0.00 64 1008.1
20260510152824 54 276 5.0 21.0 0.00 0.00 0.00 63 1008.1
20260510152347 54 300 10.0 22.0 0.00 0.00 0.00 62 1008.2
20260510151827 55 250 7.0 19.0 0.00 0.00 0.00 63 1008.2
20260510151327 55 284 9.0 19.0 0.00 0.00 0.00 61 1008.2
20260510150827 55 188 7.0 15.0 0.00 0.00 0.00 61 1008.2
20260510150347 55 298 8.0 15.0 0.00 0.00 0.00 60 1008.1
20260510145827 55 290 6.0 14.0 0.00 0.00 0.00 60 1008.2
20260510145327 55 307 6.0 12.0 0.00 0.00 0.00 59 1008.1
20260510144828 56 300 4.0 14.0 0.00 0.00 0.00 58 1008.2
20260510144326 56 319 7.0 16.0 0.00 0.00 0.00 57 1008.3
20260510143826 57 245 7.0 16.0 0.00 0.00 0.00 55 1008.3
20260510143326 57 283 5.0 11.0 0.00 0.00 0.00 53 1008.2
20260510142832 58 304 2.0 11.0 0.00 0.00 0.00 49 1008.2
20260510142330 58 187 4.0 13.0 0.00 0.00 0.00 48 1008.2
20260510141831 58 176 4.0 13.0 0.00 0.00 0.00 49 1008.3
20260510141331 58 329 2.0 11.0 0.00 0.00 0.00 49 1008.3
20260510140832 58 218 2.0 7.0 0.00 0.00 0.00 48 1008.3
20260510140353 58 194 3.0 7.0 0.00 0.00 0.00 47 1008.3
20260510135840 58 263 2.0 8.0 0.00 0.00 0.00 46 1008.3
20260510135346 58 184 3.0 9.0 0.00 0.00 0.00 47 1008.4
20260510134832 58 254 2.0 9.0 0.00 0.00 0.00 46 1008.4
20260510134331 59 236 2.0 8.0 0.00 0.00 0.00 44 1008.4
20260510133831 59 312 2.0 9.0 0.00 0.00 0.00 44 1008.4
20260510133359 59 230 2.0 12.0 0.00 0.00 0.00 45 1008.4
20260510132828 59 178 5.0 12.0 0.00 0.00 0.00 43 1008.4
20260510132329 60 178 3.0 8.0 0.00 0.00 0.00 43 1008.4
20260510131829 60 199 4.0 9.0 0.00 0.00 0.00 41 1008.5
20260510131338 61 317 4.0 11.0 0.00 0.00 0.00 41 1008.5
20260510130826 62 209 5.0 11.0 0.00 0.00 0.00 41 1008.5
20260510130331 62 209 2.0 9.0 0.00 0.00 0.00 42 1008.4
20260510125831 62 191 4.0 9.0 0.00 0.00 0.00 40 1008.6
20260510125331 62 295 1.0 11.0 0.00 0.00 0.00 44 1008.8
20260510124830 62 296 1.0 11.0 0.00 0.00 0.00 43 1008.9
20260510124330 62 144 4.0 9.0 0.00 0.00 0.00 43 1009.0
20260510123829 61 165 3.0 10.0 0.00 0.00 0.00 41 1009.0
20260510123330 61 199 4.0 10.0 0.00 0.00 0.00 43 1009.3
20260510122850 61 322 2.0 10.0 0.00 0.00 0.00 42 1009.3
20260510122337 61 202 4.0 9.0 0.00 0.00 0.00 43 1009.3
20260510121841 60 222 4.0 9.0 0.00 0.00 0.00 41 1009.5
20260510121328 60 176 1.0 7.0 0.00 0.00 0.00 43 1009.6
20260510120829 60 185 2.0 9.0 0.00 0.00 0.00 43 1009.6
20260510120329 60 188 4.0 8.0 0.00 0.00 0.00 42 1009.8
20260510115831 60 218 2.0 5.0 0.00 0.00 0.00 43 1009.9
20260510115331 60 355 2.0 6.0 0.00 0.00 0.00 42 1010.0
20260510114831 60 203 2.0 7.0 0.00 0.00 0.00 40 1010.0
20260510114339 60 203 1.0 10.0 0.00 0.00 0.00 42 1010.1
20260510113828 60 193 3.0 12.0 0.00 0.00 0.00 40 1010.1
20260510113335 61 157 4.0 11.0 0.00 0.00 0.00 39 1010.2
20260510112824 61 195 4.0 11.0 0.00 0.00 0.00 40 1010.2
20260510112332 61 225 3.0 13.0 0.00 0.00 0.00 39 1010.3
20260510111901 61 179 3.0 13.0 0.00 0.00 0.00 39 1010.4
20260510111329 62 200 3.0 9.0 0.00 0.00 0.00 39 1010.4
20260510110830 62 304 3.0 10.0 0.00 0.00 0.00 38 1010.4
20260510110331 63 217 4.0 10.0 0.00 0.00 0.00 37 1010.5
20260510105851 64 269 5.0 15.0 0.00 0.00 0.00 36 1010.6
20260510105350 64 347 4.0 15.0 0.00 0.00 0.00 36 1010.6
20260510104829 65 269 3.0 9.0 0.00 0.00 0.00 34 1010.7
20260510104350 64 115 2.0 10.0 0.00 0.00 0.00 37 1010.7
20260510103826 64 331 3.0 11.0 0.00 0.00 0.00 36 1010.8
20260510103325 64 296 2.0 16.0 0.00 0.00 0.00 37 1010.9
20260510102825 64 292 3.0 16.0 0.00 0.00 0.00 36 1011.1
20260510102336 64 162 2.0 10.0 0.00 0.00 0.00 35 1011.1
20260510101824 65 279 4.0 10.0 0.00 0.00 0.00 36 1011.1
20260510101326 65 138 4.0 11.0 0.00 0.00 0.00 34 1011.3
20260510100826 64 343 3.0 14.0 0.00 0.00 0.00 34 1011.4
20260510100348 63 198 3.0 16.0 0.00 0.00 0.00 34 1011.4
20260510095826 63 214 3.0 16.0 0.00 0.00 0.00 34 1011.5
20260510095327 63 196 3.0 12.0 0.00 0.00 0.00 33 1011.5
20260510094827 63 212 4.0 13.0 0.00 0.00 0.00 36 1011.6
20260510094335 62 202 3.0 14.0 0.00 0.00 0.00 36 1011.7
20260510093824 63 209 6.0 14.0 0.00 0.00 0.00 35 1011.7
20260510093324 63 153 3.0 14.0 0.00 0.00 0.00 36 1011.8
20260510092833 62 192 6.0 18.0 0.00 0.00 0.00 36 1011.9
20260510092341 63 222 4.0 18.0 0.00 0.00 0.00 34 1011.9
20260510091850 64 185 5.0 11.0 0.00 0.00 0.00 34 1011.9
20260510091334 64 201 6.0 11.0 0.00 0.00 0.00 34 1012.0
20260510090843 64 198 4.0 10.0 0.00 0.00 0.00 34 1012.1
20260510090352 64 225 3.0 16.0 0.00 0.00 0.00 34 1012.2
20260510085851 64 175 3.0 16.0 0.00 0.00 0.00 35 1012.3
20260510085330 63 302 2.0 10.0 0.00 0.00 0.00 38 1012.3
20260510084851 63 203 4.0 10.0 0.00 0.00 0.00 36 1012.4
20260510084330 63 344 2.0 10.0 0.00 0.00 0.00 39 1012.4
20260510083830 62 177 3.0 12.0 0.00 0.00 0.00 38 1012.5
20260510083330 63 199 5.0 11.0 0.00 0.00 0.00 37 1012.5
20260510082831 63 292 4.0 14.0 0.00 0.00 0.00 36 1012.6
20260510082331 63 169 4.0 12.0 0.00 0.00 0.00 38 1012.6
20260510081852 62 281 3.0 10.0 0.00 0.00 0.00 41 1012.7
20260510081400 61 126 3.0 10.0 0.00 0.00 0.00 43 1012.7
20260510080827 62 322 5.0 9.0 0.00 0.00 0.00 42 1012.8
20260510080336 62 187 3.0 9.0 0.00 0.00 0.00 44 1012.9
20260510075824 61 250 1.0 5.0 0.00 0.00 0.00 45 1012.9
20260510075332 61 178 1.0 6.0 0.00 0.00 0.00 43 1013.0
20260510074900 61 295 2.0 6.0 0.00 0.00 0.00 43 1013.1
20260510074328 60 210 2.0 8.0 0.00 0.00 0.00 43 1013.3
20260510073828 60 221 4.0 8.0 0.00 0.00 0.00 44 1013.3
20260510073329 59 203 1.0 7.0 0.00 0.00 0.00 47 1013.4
20260510072829 58 217 3.0 6.0 0.00 0.00 0.00 44 1013.4
20260510072330 58 276 2.0 11.0 0.00 0.00 0.00 47 1013.5
20260510071851 57 302 1.0 11.0 0.00 0.00 0.00 46 1013.5
20260510071331 57 175 5.0 9.0 0.00 0.00 0.00 46 1013.5
20260510070831 57 182 2.0 6.0 0.00 0.00 0.00 49 1013.7
20260510070339 56 222 2.0 4.0 0.00 0.00 0.00 50 1013.7
20260510065828 55 14 2.0 7.0 0.00 0.00 0.00 52 1013.7
20260510065329 55 284 3.0 9.0 0.00 0.00 0.00 50 1013.8
20260510064829 54 302 2.0 9.0 0.00 0.00 0.00 54 1013.9
20260510064349 54 184 1.0 6.0 0.00 0.00 0.00 54 1013.9
20260510063829 54 208 2.0 6.0 0.00 0.00 0.00 55 1014.0
20260510063329 53 284 3.0 8.0 0.00 0.00 0.00 55 1014.0
20260510062838 53 268 2.0 8.0 0.00 0.00 0.00 55 1014.1
20260510062325 53 229 1.0 5.0 0.00 0.00 0.00 58 1014.1
20260510061834 52 211 1.0 5.0 0.00 0.00 0.00 59 1014.2
20260510061339 52 292 1.0 5.0 0.00 0.00 0.00 60 1014.3
20260510060828 51 321 3.0 4.0 0.00 0.00 0.00 67 1014.2
20260510060330 51 207 2.0 6.0 0.00 0.00 0.00 67 1014.1
20260510055831 50 197 3.0 6.0 0.00 0.00 0.00 68 1014.2
20260510055330 50 27 2.0 7.0 0.00 0.00 0.00 68 1014.3
20260510054829 49 209 2.0 7.0 0.00 0.00 0.00 71 1014.3
20260510054329 49 150 3.0 8.0 0.00 0.00 0.00 70 1014.4
20260510053830 48 211 4.0 8.0 0.00 0.00 0.00 70 1014.4
20260510053330 48 211 3.0 5.0 0.00 0.00 0.00 72 1014.4
20260510052830 47 194 3.0 7.0 0.00 0.00 0.00 73 1014.4
20260510052332 47 202 3.0 7.0 0.00 0.00 0.00 74 1014.4
20260510051831 46 169 2.0 6.0 0.00 0.00 0.00 76 1014.5
20260510051339 46 211 3.0 6.0 0.00 0.00 0.00 77 1014.6
20260510050825 45 178 3.0 6.0 0.00 0.00 0.00 79 1014.7
20260510050333 44 200 3.0 7.0 0.00 0.00 0.00 80 1014.7
20260510045851 43 185 3.0 7.0 0.00 0.00 0.00 82 1014.8
20260510045357 42 196 2.0 5.0 0.00 0.00 0.00 85 1014.8
20260510044902 41 192 2.0 5.0 0.00 0.00 0.00 87 1014.9
20260510044328 40 192 3.0 6.0 0.00 0.00 0.00 89 1014.9
20260510043834 39 217 2.0 6.0 0.00 0.00 0.00 90 1015.0
20260510043340 39 200 1.0 4.0 0.00 0.00 0.00 91 1015.0
20260510042826 38 210 1.0 3.0 0.00 0.00 0.00 91 1015.2
20260510042332 38 194 0.0 1.0 0.00 0.00 0.00 91 1015.2
20260510041839 38 194 0.0 1.0 0.00 0.00 0.00 91 1015.3
20260510041346 37 186 0.0 0.0 0.00 0.00 0.00 91 1015.3
20260510040853 37 186 0.0 0.0 0.00 0.00 0.00 91 1015.3
20260510040324 37 186 0.0 0.0 0.00 0.00 0.00 91 1015.3
20260510035824 37 186 0.0 0.0 0.00 0.00 0.00 91 1015.3
20260510035324 37 186 0.0 2.0 0.00 0.00 0.00 91 1015.4
20260510034845 37 186 0.0 2.0 0.00 0.00 0.00 91 1015.4
20260510034326 36 186 0.0 1.0 0.00 0.00 0.00 90 1015.5
20260510033846 36 186 0.0 1.0 0.00 0.00 0.00 90 1015.7
20260510033326 36 186 0.0 1.0 0.00 0.00 0.00 90 1015.9
20260510032827 36 186 0.0 0.0 0.00 0.00 0.00 89 1015.9
20260510032327 36 186 0.0 2.0 0.00 0.00 0.00 89 1015.9
20260510031827 36 186 0.0 2.0 0.00 0.00 0.00 89 1015.9
20260510031329 36 186 0.0 2.0 0.00 0.00 0.00 89 1016.0
20260510030850 36 186 1.0 2.0 0.00 0.00 0.00 89 1016.1
20260510030349 36 186 0.0 2.0 0.00 0.00 0.00 88 1016.2
20260510025829 37 183 0.0 2.0 0.00 0.00 0.00 89 1016.3
20260510025329 37 183 1.0 2.0 0.00 0.00 0.00 89 1016.3
20260510024830 37 183 1.0 2.0 0.00 0.00 0.00 88 1016.4
20260510024331 37 183 0.0 0.0 0.00 0.00 0.00 87 1016.5
20260510023831 37 183 0.0 1.0 0.00 0.00 0.00 87 1016.5
20260510023332 37 183 0.0 2.0 0.00 0.00 0.00 88 1016.5
20260510022839 37 183 0.0 2.0 0.00 0.00 0.00 88 1016.6
20260510022327 37 183 1.0 2.0 0.00 0.00 0.00 87 1016.6
20260510021856 38 183 1.0 2.0 0.00 0.00 0.00 86 1016.7
20260510021324 38 183 0.0 2.0 0.00 0.00 0.00 85 1016.8
20260510020832 39 183 0.0 1.0 0.00 0.00 0.00 84 1016.9
20260510020351 39 183 0.0 1.0 0.00 0.00 0.00 83 1016.8
20260510015830 39 183 0.0 2.0 0.00 0.00 0.00 83 1016.9
20260510015331 40 183 0.0 2.0 0.00 0.00 0.00 82 1016.8
20260510014839 40 164 1.0 2.0 0.00 0.00 0.00 82 1016.9
20260510014329 41 163 1.0 3.0 0.00 0.00 0.00 83 1017.0
20260510013859 41 163 1.0 5.0 0.00 0.00 0.00 88 1016.9
20260510013326 41 146 2.0 5.0 0.00 0.00 0.00 83 1016.9
20260510012835 41 144 2.0 5.0 0.00 0.00 0.00 83 1017.0
20260510012325 41 162 3.0 6.0 0.00 0.00 0.00 83 1017.0
20260510011831 41 140 3.0 6.0 0.00 0.00 0.00 83 1017.2
20260510011330 41 220 1.0 7.0 0.00 0.00 0.00 83 1017.3
20260510010851 41 198 3.0 9.0 0.00 0.00 0.00 83 1017.3
20260510010350 41 200 2.0 9.0 0.00 0.00 0.00 83 1017.3
20260510005837 41 188 2.0 7.0 0.00 0.00 0.00 83 1017.4
20260510005345 41 130 1.0 5.0 0.00 0.00 0.00 83 1017.4
20260510004831 41 191 2.0 4.0 0.00 0.00 0.00 82 1017.5
20260510004330 41 133 2.0 6.0 0.00 0.00 0.00 82 1017.6
20260510003830 41 169 2.0 6.0 0.00 0.00 0.00 82 1017.7
20260510003331 42 148 3.0 6.0 0.00 0.00 0.00 82 1017.9
20260510002831 42 152 3.0 8.0 0.00 0.00 0.00 81 1018.0
20260510002330 42 194 5.0 7.0 0.00 0.00 0.00 81 1018.1
20260510001831 42 207 3.0 10.0 0.00 0.00 0.00 81 1018.1
20260510001331 42 149 4.0 10.0 0.00 0.00 0.00 81 1018.2
20260510000831 42 173 3.0 9.0 0.00 0.00 0.00 80 1018.2
20260510000333 42 142 5.0 10.0 0.00 0.00 0.00 80 1018.3
20260509235832 42 203 3.0 10.0 0.00 0.00 0.00 79 1018.4
20260509235328 43 175 5.0 10.0 0.00 0.00 0.00 79 1018.4
20260509234825 43 188 5.0 12.0 0.00 0.00 0.00 78 1018.4
20260509234326 43 187 5.0 12.0 0.00 0.00 0.00 78 1018.5
20260509233847 43 158 4.0 13.0 0.00 0.00 0.00 77 1018.5
20260509233326 43 192 6.0 13.0 0.00 0.00 0.00 77 1018.6
20260509232827 43 169 5.0 13.0 0.00 0.00 0.00 76 1018.6
20260509232326 43 176 5.0 13.0 0.00 0.00 0.00 76 1018.7
20260509231834 43 180 5.0 10.0 0.00 0.00 0.00 75 1018.7
20260509231343 43 159 4.0 11.0 0.00 0.00 0.00 75 1018.8
20260509230832 44 154 4.0 12.0 0.00 0.00 0.00 74 1018.9
20260509230340 44 150 5.0 11.0 0.00 0.00 0.00 74 1018.9
20260509225849 44 198 5.0 10.0 0.00 0.00 0.00 74 1019.0
20260509225328 44 149 5.0 11.0 0.00 0.00 0.00 73 1019.0
20260509224834 44 164 4.0 10.0 0.00 0.00 0.00 73 1019.1
20260509224342 44 157 5.0 10.0 0.00 0.00 0.00 72 1019.2
20260509223850 44 188 4.0 11.0 0.00 0.00 0.00 72 1019.2
20260509223350 44 165 5.0 11.0 0.00 0.00 0.00 71 1019.3
20260509222829 45 179 5.0 13.0 0.00 0.00 0.00 71 1019.3
20260509222349 45 163 6.0 13.0 0.00 0.00 0.00 70 1019.4
20260509221829 45 160 5.0 11.0 0.00 0.00 0.00 70 1019.5
20260509221328 45 158 6.0 11.0 0.00 0.00 0.00 69 1019.6
20260509220828 45 189 6.0 12.0 0.00 0.00 0.00 69 1019.6
20260509220330 45 163 6.0 14.0 0.00 0.00 0.00 68 1019.6
20260509215831 45 173 6.0 14.0 0.00 0.00 0.00 67 1019.7
20260509215331 45 180 6.0 11.0 0.00 0.00 0.00 67 1019.7
20260509214851 46 188 5.0 14.0 0.00 0.00 0.00 66 1019.7
20260509214339 46 136 5.0 14.0 0.00 0.00 0.00 65 1019.8
20260509213824 46 163 5.0 12.0 0.00 0.00 0.00 64 1019.8
20260509213332 46 148 4.0 10.0 0.00 0.00 0.00 63 1019.8
20260509212840 46 163 5.0 12.0 0.00 0.00 0.00 63 1019.8
20260509212326 47 182 6.0 13.0 0.00 0.00 0.00 62 1019.8
20260509211855 47 165 7.0 13.0 0.00 0.00 0.00 61 1019.8
20260509211329 47 198 5.0 12.0 0.00 0.00 0.00 60 1019.8
20260509210830 47 188 4.0 12.0 0.00 0.00 0.00 59 1019.9
20260509210329 47 196 6.0 12.0 0.00 0.00 0.00 59 1019.9
20260509205829 48 163 5.0 12.0 0.00 0.00 0.00 58 1019.8
20260509205329 48 185 6.0 14.0 0.00 0.00 0.00 57 1019.9
20260509204829 48 179 5.0 12.0 0.00 0.00 0.00 56 1019.9
20260509204329 48 173 6.0 10.0 0.00 0.00 0.00 56 1020.0
20260509203838 48 145 5.0 11.0 0.00 0.00 0.00 59 1019.9
20260509203347 48 182 4.0 11.0 0.00 0.00 0.00 56 1020.0
20260509202856 49 145 5.0 11.0 0.00 0.00 0.00 55 1020.1
20260509202345 49 159 6.0 13.0 0.00 0.00 0.00 55 1020.1
20260509201827 49 136 5.0 15.0 0.00 0.00 0.00 54 1020.2
20260509201348 49 141 6.0 15.0 0.00 0.00 0.00 54 1020.1
20260509200835 50 196 5.0 12.0 0.00 0.00 0.00 54 1020.1
20260509200324 50 126 6.0 12.0 0.00 0.00 0.00 53 1020.2
20260509195826 50 156 6.0 12.0 0.00 0.00 0.00 53 1020.2
20260509195326 50 126 6.0 12.0 0.00 0.00 0.00 54 1020.3
20260509194827 50 170 6.0 10.0 0.00 0.00 0.00 55 1020.3
20260509194326 51 173 6.0 10.0 0.00 0.00 0.00 54 1020.3
20260509193827 51 178 4.0 9.0 0.00 0.00 0.00 53 1020.3
20260509193327 51 153 5.0 9.0 0.00 0.00 0.00 53 1020.3
20260509192848 51 153 4.0 9.0 0.00 0.00 0.00 52 1020.3
20260509192328 52 138 2.0 9.0 0.00 0.00 0.00 51 1020.2
20260509191828 52 165 3.0 9.0 0.00 0.00 0.00 51 1020.2
20260509191348 52 159 3.0 10.0 0.00 0.00 0.00 50 1020.2
20260509190827 53 160 3.0 10.0 0.00 0.00 0.00 49 1020.2
20260509190336 53 165 3.0 8.0 0.00 0.00 0.00 49 1020.2
20260509185825 53 165 4.0 11.0 0.00 0.00 0.00 48 1020.2
20260509185344 54 163 4.0 16.0 0.00 0.00 0.00 47 1020.2
20260509184844 54 144 4.0 16.0 0.00 0.00 0.00 46 1020.2
20260509184332 54 148 7.0 13.0 0.00 0.00 0.00 45 1020.2
20260509183832 55 207 6.0 13.0 0.00 0.00 0.00 44 1020.2
20260509183332 55 161 6.0 14.0 0.00 0.00 0.00 44 1020.2